Weather History for Pompano Beach, FL

Change the Weather History Date:

Monday, November 8, 2010

  Actual Average Record
Temperature  
Mean Temperature 66 °F -  
Max Temperature 72 °F 82 °F 89 °F (1972)
Min Temperature 61 °F 66 °F 50 °F (1951)
Cooling Degree Days 2    
Growing Degree Days 16 (Base 50)    
Moisture  
Dew Point 53 °F    
Average Humidity 66    
Maximum Humidity 83    
Minimum Humidity 48    
Precipitation  
Precipitation 0.00 in - - ()
Sea Level Pressure  
Sea Level Pressure 30.05 in    
Wind  
Wind Speed 10 mph (NNW)    
Max Wind Speed 15 mph    
Max Gust Speed 22 mph    
Visibility 10 miles    
Events      
Averages and records for this station are not official NWS values.
T = Trace of Precipitation, MM = Missing Value Source: NWS Daily Summary

Daily Weather History Graph

Daily Weather History Graph

Search for Another Location

Airport:

Trip Planner

Search our weather history database for the weather conditions in past years. The results will help you decide how hot, cold, wet, or windy it might be!

Date:

Astronomy

Nov. 08, 2010 Rise Set
Actual Time 6:34 AM EST 5:33 PM EST
Civil Twilight 6:09 AM EST 5:58 PM EST
Nautical Twilight 5:42 AM EST 6:25 PM EST
Astronomical Twilight 5:15 AM EST 6:52 PM EST
Moon 9:03 AM EST (11/8) 7:44 PM EST (11/8)
Length of Visible Light 11h 48m
Length of Day
10h 59m
Waxing Crescent, 8% of the Moon is Illuminated
Nov 8
Waxing Crescent
Nov 13
First Quarter
Nov 21
Full
Nov 28
Last Quarter
Dec 5
New

Hourly Weather History & Observations

Time (EST) Temp. Dew Point Humidity Pressure Visibility Wind Dir Wind Speed Gust Speed Precip Events Conditions
12:53 AM 62.1 °F 54.0 °F 75% 30.08 in 10.0 mi NNW 9.2 mph - 0.00 in   Overcast
1:53 AM 62.1 °F 53.1 °F 72% 30.06 in 10.0 mi NNW 10.4 mph - 0.00 in   Overcast
2:53 AM 62.1 °F 53.1 °F 72% 30.05 in 10.0 mi NW 11.5 mph - N/A   Overcast
3:53 AM 61.0 °F 54.0 °F 78% 30.04 in 10.0 mi NW 10.4 mph - 0.00 in   Overcast
4:53 AM 62.1 °F 53.1 °F 72% 30.05 in 10.0 mi NW 10.4 mph - N/A   Overcast
5:53 AM 62.1 °F 52.0 °F 70% 30.05 in 10.0 mi NNW 11.5 mph - N/A   Overcast
6:53 AM 63.0 °F 53.1 °F 70% 30.06 in 10.0 mi NNW 13.8 mph - N/A   Overcast
7:53 AM 64.0 °F 52.0 °F 65% 30.07 in 10.0 mi NNW 12.7 mph 21.9 mph N/A   Overcast
8:53 AM 64.9 °F 52.0 °F 63% 30.09 in 10.0 mi North 15.0 mph - N/A   Mostly Cloudy
9:53 AM 66.0 °F 52.0 °F 60% 30.10 in 10.0 mi NNW 12.7 mph - N/A   Mostly Cloudy
10:53 AM 68.0 °F 52.0 °F 56% 30.09 in 10.0 mi NNW 13.8 mph - N/A   Overcast
11:53 AM 68.0 °F 52.0 °F 56% 30.08 in 10.0 mi NNW 11.5 mph - N/A   Overcast
12:53 PM 70.0 °F 52.0 °F 53% 30.05 in 10.0 mi NNW 13.8 mph - N/A   Overcast
1:53 PM 70.0 °F 53.1 °F 55% 30.03 in 10.0 mi NNW 10.4 mph - N/A   Overcast
3:53 PM 72.0 °F 51.1 °F 48% 30.01 in 10.0 mi NNW 11.5 mph - N/A   Mostly Cloudy
4:53 PM 71.1 °F 52.0 °F 51% 30.01 in 10.0 mi NNW 9.2 mph - N/A   Overcast
5:53 PM 70.0 °F 53.1 °F 55% 30.02 in 10.0 mi North 4.6 mph - N/A   Mostly Cloudy
6:53 PM 69.1 °F 54.0 °F 58% 30.03 in 10.0 mi North 5.8 mph - N/A   Mostly Cloudy
7:53 PM 66.9 °F 55.0 °F 66% 30.02 in 10.0 mi North 9.2 mph - N/A   Scattered Clouds
8:53 PM 63.0 °F 55.0 °F 75% 30.03 in 10.0 mi NNW 4.6 mph - N/A   Partly Cloudy
9:53 PM 62.1 °F 55.9 °F 80% 30.03 in 10.0 mi NNW 6.9 mph - N/A   Clear
10:53 PM 62.1 °F 55.9 °F 80% 30.03 in 10.0 mi NNW 6.9 mph - N/A   Clear
11:53 PM 61.0 °F 55.9 °F 83% 30.03 in 10.0 mi NW 6.9 mph - N/A   Clear